When you browse on this site, cookies collect data to enhance your experience and personalize the content and advertising you see.
Visit our Privacy Policy to learn more. By continuing to use the site, you agree to this use of cookies and data.
EN

Hourly Weather Demidovka

Today, 12 August, Wednesday

Time Temperature Precipitation Wind Pressure Humidity
00:00 +12°C° 0 mm 3 mps 750 mmHg 85%
01:00 +12°C° 0 mm 3 mps 750 mmHg 87%
02:00 +11°C° 0 mm 3 mps 751 mmHg 88%
03:00 +11°C° 0 mm 3 mps 751 mmHg 90%
04:00 +10°C° 0 mm 3 mps 751 mmHg 91%
05:00 +10°C° 0 mm 3 mps 751 mmHg 92%
06:00 +11°C° 0 mm 4 mps 751 mmHg 87%
07:00 +13°C° 0 mm 4 mps 751 mmHg 81%
08:00 +14°C° 0 mm 4 mps 751 mmHg 75%
09:00 +15°C° 0 mm 4 mps 751 mmHg 73%
10:00 +17°C° 0 mm 4 mps 751 mmHg 71%
11:00 +17°C° 0 mm 5 mps 751 mmHg 68%
12:00 +17°C° 0.1 mm 5 mps 751 mmHg 67%
13:00 +17°C° 0.1 mm 5 mps 751 mmHg 65%
14:00 +17°C° 0.1 mm 5 mps 751 mmHg 64%
15:00 +17°C° 0 mm 5 mps 751 mmHg 64%
16:00 +17°C° 0 mm 5 mps 751 mmHg 64%
17:00 +18°C° 0 mm 4 mps 751 mmHg 64%
18:00 +17°C° 0 mm 4 mps 751 mmHg 71%
19:00 +16°C° 0 mm 3 mps 751 mmHg 78%
20:00 +13°C° 0 mm 3 mps 751 mmHg 85%
21:00 +12°C° 0 mm 3 mps 751 mmHg 87%
22:00 +12°C° 0 mm 3 mps 751 mmHg 89%
23:00 +11°C° 0 mm 3 mps 751 mmHg 91%

Tomorrow, 13 August, Thursday

Time Temperature Precipitation Wind Pressure Humidity
00:00 +11°C° 0 mm 3 mps 751 mmHg 91%
01:00 +10°C° 0 mm 3 mps 751 mmHg 92%
02:00 +10°C° 0 mm 3 mps 752 mmHg 93%
03:00 +10°C° 0 mm 3 mps 751 mmHg 93%
04:00 +9°C° 0 mm 2 mps 751 mmHg 94%
05:00 +9°C° 0 mm 2 mps 751 mmHg 95%
06:00 +12°C° 0 mm 2 mps 751 mmHg 89%
07:00 +13°C° 0 mm 3 mps 751 mmHg 84%
08:00 +14°C° 0 mm 3 mps 751 mmHg 78%
09:00 +16°C° 0.1 mm 3 mps 751 mmHg 74%
10:00 +18°C° 0.1 mm 3 mps 751 mmHg 70%
11:00 +19°C° 0.1 mm 4 mps 751 mmHg 65%
12:00 +19°C° 0.1 mm 4 mps 751 mmHg 65%
13:00 +19°C° 0.1 mm 4 mps 750 mmHg 65%
14:00 +18°C° 0.1 mm 4 mps 750 mmHg 64%
15:00 +18°C° 0 mm 4 mps 750 mmHg 65%
16:00 +18°C° 0 mm 4 mps 750 mmHg 66%
17:00 +18°C° 0 mm 4 mps 750 mmHg 66%
18:00 +16°C° 0 mm 3 mps 750 mmHg 70%
19:00 +14°C° 0 mm 3 mps 750 mmHg 73%
20:00 +14°C° 0 mm 2 mps 750 mmHg 77%
21:00 +13°C° 0 mm 2 mps 750 mmHg 79%
22:00 +12°C° 0 mm 2 mps 751 mmHg 81%
23:00 +12°C° 0 mm 2 mps 751 mmHg 83%

Day after tomorrow, 14 August, Friday

Time Temperature Precipitation Wind Pressure Humidity
00:00 +10°C° 0 mm 2 mps 751 mmHg 84%
01:00 +10°C° 0 mm 2 mps 751 mmHg 86%
02:00 +10°C° 0 mm 2 mps 751 mmHg 87%
03:00 +9°C° 0 mm 2 mps 751 mmHg 87%
04:00 +9°C° 0 mm 2 mps 751 mmHg 87%
05:00 +9°C° 0 mm 2 mps 751 mmHg 88%
06:00 +12°C° 0 mm 2 mps 751 mmHg 82%
07:00 +14°C° 0 mm 2 mps 751 mmHg 76%
08:00 +15°C° 0 mm 2 mps 751 mmHg 71%
09:00 +16°C° 0 mm 3 mps 751 mmHg 66%
10:00 +18°C° 0 mm 3 mps 751 mmHg 60%
11:00 +19°C° 0 mm 3 mps 751 mmHg 55%
12:00 +19°C° 0 mm 3 mps 751 mmHg 54%
13:00 +20°C° 0 mm 3 mps 751 mmHg 53%
14:00 +20°C° 0 mm 3 mps 751 mmHg 52%
15:00 +20°C° 0 mm 3 mps 751 mmHg 55%
16:00 +19°C° 0 mm 3 mps 751 mmHg 57%
17:00 +19°C° 0 mm 3 mps 751 mmHg 59%
18:00 +17°C° 0 mm 2 mps 751 mmHg 65%
19:00 +16°C° 0 mm 2 mps 751 mmHg 71%
20:00 +14°C° 0 mm 2 mps 751 mmHg 77%
21:00 +13°C° 0 mm 1 mps 752 mmHg 79%
22:00 +13°C° 0 mm 1 mps 752 mmHg 81%
23:00 +12°C° 0 mm 1 mps 752 mmHg 83%

15 August, Saturday

Time Temperature Precipitation Wind Pressure Humidity
00:00 +12°C° 0 mm 1 mps 752 mmHg 84%
01:00 +11°C° 0 mm 1 mps 752 mmHg 84%
02:00 +10°C° 0 mm 0 mps 752 mmHg 85%
03:00 +10°C° 0 mm 0 mps 752 mmHg 86%
04:00 +11°C° 0 mm 1 mps 752 mmHg 87%
05:00 +10°C° 0 mm 1 mps 752 mmHg 88%
06:00 +12°C° 0 mm 1 mps 752 mmHg 81%
07:00 +14°C° 0 mm 1 mps 753 mmHg 75%
08:00 +16°C° 0 mm 1 mps 753 mmHg 69%
09:00 +19°C° 0 mm 1 mps 753 mmHg 64%
10:00 +20°C° 0 mm 1 mps 753 mmHg 59%
11:00 +22°C° 0 mm 1 mps 753 mmHg 54%
12:00 +22°C° 0 mm 1 mps 753 mmHg 52%
13:00 +23°C° 0 mm 1 mps 753 mmHg 50%
14:00 +23°C° 0 mm 1 mps 752 mmHg 48%
15:00 +23°C° 0 mm 1 mps 752 mmHg 50%
16:00 +23°C° 0 mm 1 mps 752 mmHg 52%
17:00 +23°C° 0 mm 1 mps 752 mmHg 54%
18:00 +21°C° 0 mm 1 mps 752 mmHg 61%
19:00 +19°C° 0 mm 1 mps 752 mmHg 67%
20:00 +16°C° 0 mm 1 mps 752 mmHg 74%
21:00 +16°C° 0 mm 1 mps 752 mmHg 75%
22:00 +15°C° 0 mm 1 mps 752 mmHg 76%
23:00 +15°C° 0 mm 2 mps 752 mmHg 77%

16 August, Sunday

Time Temperature Precipitation Wind Pressure Humidity
00:00 +15°C° 0 mm 2 mps 752 mmHg 78%
01:00 +14°C° 0 mm 2 mps 752 mmHg 79%
02:00 +14°C° 0 mm 2 mps 752 mmHg 81%
03:00 +14°C° 0 mm 2 mps 752 mmHg 82%
04:00 +14°C° 0 mm 2 mps 752 mmHg 83%
05:00 +13°C° 0 mm 2 mps 752 mmHg 85%
06:00 +15°C° 0 mm 2 mps 752 mmHg 81%
07:00 +17°C° 0 mm 3 mps 752 mmHg 78%
08:00 +18°C° 0 mm 3 mps 752 mmHg 75%
09:00 +20°C° 0 mm 3 mps 752 mmHg 71%
10:00 +22°C° 0 mm 3 mps 752 mmHg 67%
11:00 +24°C° 0 mm 3 mps 752 mmHg 62%
12:00 +25°C° 0 mm 3 mps 752 mmHg 60%
13:00 +26°C° 0 mm 3 mps 752 mmHg 58%
14:00 +26°C° 0 mm 3 mps 751 mmHg 56%
15:00 +26°C° 0 mm 3 mps 751 mmHg 59%
16:00 +26°C° 0 mm 3 mps 751 mmHg 61%
17:00 +25°C° 0 mm 3 mps 751 mmHg 64%
18:00 +24°C° 0.1 mm 2 mps 751 mmHg 71%
19:00 +21°C° 0.1 mm 2 mps 751 mmHg 77%
20:00 +20°C° 0.1 mm 1 mps 751 mmHg 83%
21:00 +19°C° 0 mm 1 mps 751 mmHg 85%
22:00 +19°C° 0 mm 1 mps 751 mmHg 87%
23:00 +18°C° 0 mm 1 mps 751 mmHg 89%

17 August, Monday

Time Temperature Precipitation Wind Pressure Humidity
00:00 +18°C° 0 mm 1 mps 751 mmHg 89%
01:00 +18°C° 0 mm 1 mps 751 mmHg 90%
02:00 +18°C° 0 mm 1 mps 751 mmHg 90%
03:00 +16°C° 0 mm 1 mps 751 mmHg 91%
04:00 +16°C° 0 mm 1 mps 751 mmHg 91%
05:00 +16°C° 0 mm 1 mps 751 mmHg 91%
06:00 +19°C° 0 mm 1 mps 751 mmHg 86%
07:00 +20°C° 0 mm 1 mps 751 mmHg 81%
08:00 +22°C° 0 mm 1 mps 751 mmHg 76%
09:00 +23°C° 0 mm 1 mps 751 mmHg 71%
10:00 +25°C° 0 mm 1 mps 751 mmHg 65%
11:00 +26°C° 0 mm 1 mps 751 mmHg 59%
12:00 +27°C° 0 mm 1 mps 751 mmHg 57%
13:00 +27°C° 0 mm 1 mps 750 mmHg 54%
14:00 +28°C° 0 mm 1 mps 750 mmHg 51%
15:00 +28°C° 0 mm 1 mps 750 mmHg 54%
16:00 +27°C° 0 mm 1 mps 749 mmHg 57%
17:00 +27°C° 0 mm 1 mps 749 mmHg 60%
18:00 +25°C° 0 mm 1 mps 749 mmHg 64%
19:00 +23°C° 0 mm 1 mps 749 mmHg 68%
20:00 +22°C° 0 mm 1 mps 749 mmHg 73%
21:00 +21°C° 0 mm 1 mps 749 mmHg 74%
22:00 +20°C° 0 mm 1 mps 749 mmHg 76%
23:00 +19°C° 0 mm 2 mps 748 mmHg 77%
Show more